Sumneytown, PA (18084)

6:52 PM EDT on August 28, 2015 (GMT -0400)
Woxall, Back yard | | Change Station
CLOSE
Current Station
Personal Weather Station
Location: Harleysville, PA
Elevation: 430 ft
Nearby Weather Stations

Elev 430 ft 40.31 °N, 75.44 °W | Updated 2 seconds ago

Clear
Clear
72.3 °F
Feels Like 77 °F
N
0.0
Wind Variable Wind from WNW
Gusts 0.0 mph

Today
High -- | Low -- °F
--% Chance of Precip.
Yesterday
High -- | Low -- °F
Precip. -- in
6:25 AM 7:40 PM
Waxing Gibbous, 99% visible
Pressure 30.16 in
Visibility 10.0 miles
Clouds Scattered Clouds 5500 ft
Heat Index 77 °F
Dew Point 54 °F
Humidity 53%
Rainfall 0.00 in
Snow Depth Not available.
UV 1 out of 12
Pollen 9.10 out of 12
Air Quality Not available.
Flu Activity Not available.
METAR KPTW 282154Z AUTO 00000KT 10SM SCT055 24/14 A3017 RMK AO2 SLP211 T02440139
Pressure 30.16 in
Visibility 10.0 miles
Clouds Scattered Clouds 5500 ft
Heat Index 77 °F
Dew Point 54 °F
Humidity 53%
Rainfall 0.00 in
Snow Depth Not available.
UV 1 out of 12
Pollen 9.10 out of 12
Air Quality Not available.
Flu Activity Not available.
METAR KPTW 282154Z AUTO 00000KT 10SM SCT055 24/14 A3017 RMK AO2 SLP211 T02440139

10-Day Weather Forecast

×

Almanac

Astronomy

Aug. 28, 2015 Rise Set
Actual Time
Civil Twilight
Nautical Twilight
Astronomical Twilight
Moon
Length of Visible Light
Length of Day
Tomorrow will be .
, % of the Moon is Illuminated

Today's Extremes

State Highs State Lows

Community

WunderPhotos

Upload Photos

1,850,516 photos uploaded!

WunderBlogs® & News

Nearby

Air Quality

  Air Quality AQ Index Pollutant
Not available.

Snow Depth

Station Depth Elevation

Earthquake Activity

City Distance Mag. Time & Date
Minimum magnitude displayed is 2.5.

Coastal Water Temperatures

Place Temperature

Stations

Nearby Weather Stations

Station Location Temp. Windchill Dew Point Humidity Wind Precip. Elev Updated Type